Location: New Plymouth
(39.0670°S, 174.0830°E)
Time: 16:42:17
(UTC+12:00)

NOAA 19 - Pass Details

Date: 20 August 2019
Orbit: 840 x 862 km, 99.2° (Epoch: 22 September)

Event Time Altitude Azimuth Distance (km) Brightness Sun altitude
Rises 19:12:03 0° 182° (S) 3,455 8.4 -16.5°
Reaches altitude 10° 19:15:04 10° 198° (SSW) 2,515 7.9 -17.1°
Maximum altitude 19:18:54 19° 242° (WSW) 1,928 7.8 -17.8°
Drops below altitude 10° 19:22:43 10° 286° (WNW) 2,505 8.8 -18.6°
Sets 19:25:44 0° 302° (WNW) 3,436 9.4 -19.1°
